Dewpoint
65 58 51 43 28 34 27 23 34 30 33 38 36 39 41 40 39 36 50 60 59 62 70 71 72 72 71 71 71 70 70 69 69 68 67 65 65 63 63 63 62 62 62 61 61 60 60 60 60
56 48 47 43 27 29 21 29 27 28 33 43 39 36 38 37 42 47 48 60 59 65 69 70 72 72 72 71 71 70 70 69 69 68 67 66 66 64 64 63 63 63 62 62 62 61 60 60 60
47 41 41 40 33 27 20 30 31 36 38 41 39 37 39 40 49 47 53 61 62 65 69 69 72 72 72 71 71 71 70 69 68 67 66 66 66 66 65 64 63 63 62 62 63 63 62 62 62
46 43 39 34 34 35 27 32 36 34 33 41 41 35 37 46 48 50 60 61 62 65 68 69 72 71 71 71 71 71 70 69 69 67 67 66 65 67 67 65 64 63 63 64 64 64 64 64 64
45 41 33 33 32 34 35 36 34 32 35 39 39 36 38 47 53 58 60 59 60 63 66 67 72 72 72 72 71 71 70 70 69 69 68 67 67 67 66 65 64 65 65 65 65 66 66 67 67
39 38 33 27 29 31 32 33 32 33 35 40 39 35 39 44 54 59 60 59 59 61 64 65 72 72 71 72 72 71 71 70 69 69 69 68 68 68 67 65 65 65 66 66 67 67 68 68 67
37 35 33 31 31 30 30 31 30 31 33 36 39 36 37 40 51 60 60 59 57 58 61 62 68 70 72 72 72 71 71 70 70 69 69 69 69 69 68 67 67 67 67 67 67 68 69 69 68
41 39 37 33 29 29 30 30 31 33 33 36 38 36 34 38 49 61 60 60 58 57 58 59 65 67 69 69 72 72 71 71 70 70 70 70 70 69 69 69 69 67 68 68 68 69 69 69 69
44 35 33 34 30 29 31 35 32 33 35 35 37 38 39 43 48 55 56 56 60 60 56 57 60 65 67 67 69 72 71 71 71 71 70 69 67 68 67 69 69 68 68 68 69 70 70 70 68
44 37 32 35 32 30 35 38 34 33 34 34 36 39 37 40 44 46 51 53 54 58 61 56 58 63 64 64 66 68 69 68 68 68 68 68 67 67 68 68 69 68 69 69 70 71 70 69 66
46 41 38 35 35 36 37 39 38 36 35 34 37 37 38 41 42 42 45 50 52 54 59 60 58 60 62 62 63 65 68 67 68 67 67 68 67 67 68 67 67 68 69 67 69 70 70 67 65
44 45 42 39 39 44 41 42 41 39 38 38 40 39 40 39 38 38 42 43 44 45 51 58 61 60 60 61 62 63 65 66 66 67 67 67 67 66 66 66 66 66 67 68 68 67 68 67 65
40 41 44 45 44 44 43 43 42 41 41 40 40 40 40 40 39 39 39 41 40 39 40 46 62 62 62 61 61 62 62 65 65 66 67 66 66 65 65 65 65 64 65 66 67 66 66 66 65
30 37 39 38 37 38 37 37 37 37 38 36 35 35 36 35 36 36 38 38 39 41 42 42 59 63 63 62 61 61 62 64 64 65 66 66 66 65 64 64 64 63 64 65 66 65 65 65 64
26 24 25 26 27 29 33 32 33 36 35 34 33 33 33 35 35 36 38 39 40 41 43 44 52 63 64 63 62 61 62 64 64 64 66 66 65 64 64 63 63 63 64 64 65 65 64 63 63
26 24 23 26 26 27 30 28 31 34 34 33 33 33 33 36 36 37 39 41 42 43 43 45 46 61 63 63 64 63 63 65 65 65 66 66 65 64 64 63 63 63 63 63 63 63 63 63 63
25 22 24 25 28 27 27 27 32 33 31 32 32 33 33 35 36 38 39 39 40 42 43 43 47 59 63 64 64 63 64 65 65 65 66 66 66 65 64 63 63 64 63 63 63 63 63 61 62
21 23 22 24 28 28 27 27 29 31 31 32 32 32 33 33 33 36 38 39 40 42 45 46 46 54 63 63 63 63 64 64 65 65 65 65 65 65 64 64 63 63 63 62 62 62 62 62 61
23 22 25 27 28 29 27 27 29 31 31 31 31 31 32 33 35 38 39 40 42 45 46 46 48 56 62 63 62 62 63 64 64 65 65 65 65 65 65 64 63 63 62 62 62 62 61 60 60
22 21 21 23 26 24 24 22 23 26 29 31 32 32 33 33 35 36 37 40 41 43 46 50 50 60 62 63 62 62 62 62 63 64 65 66 66 65 64 64 63 63 62 62 61 62 61 61 62
19 19 21 23 24 23 23 22 24 25 25 23 24 27 32 33 34 35 34 35 38 44 47 53 57 61 63 63 61 60 60 61 60 61 63 64 65 65 64 64 63 62 62 62 61 62 61 59 60
15 21 21 22 22 19 21 17 19 20 21 22 20 19 20 28 31 31 33 35 36 39 54 60 62 63 63 62 61 61 60 59 59 60 62 62 64 64 63 63 62 62 62 62 61 61 60 59 58
14 19 20 22 20 19 18 16 16 18 17 18 19 18 19 21 24 27 29 31 34 49 58 62 63 63 63 62 61 59 59 59 59 60 60 61 62 63 63 63 63 62 62 61 61 60 59 59 58
17 16 17 19 20 17 17 16 13 13 11 12 16 18 23 25 26 28 31 36 46 58 61 62 63 62 62 62 61 60 59 59 59 59 59 60 61 62 63 63 62 62 61 61 61 60 60 59 59
12 11 13 14 15 11 18 16 12 18 20 22 21 22 23 24 24 28 31 48 55 59 61 62 62 61 62 61 61 60 59 59 59 59 59 60 60 61 61 62 62 61 61 61 60 60 60 59 59
9 8 14 10 14 10 19 16 16 21 18 18 19 22 24 24 24 26 30 47 57 60 61 62 61 60 60 60 60 59 59 59 59 59 60 60 60 60 61 61 62 61 61 61 60 60 60 60 59
14 7 8 5 11 8 16 18 19 17 16 19 23 23 22 24 26 27 36 55 59 61 61 61 61 60 59 59 58 59 59 59 59 59 60 60 60 60 61 61 60 60 61 61 60 60 60 60 60
15 14 8 8 4 8 13 15 16 19 18 15 22 23 25 28 31 34 54 59 60 61 60 61 60 59 59 58 59 59 60 60 60 60 60 60 60 60 60 60 60 60 60 60 60 60 60 60 60
18 16 18 11 11 11 11 14 20 18 22 24 23 23 25 42 53 55 58 60 61 60 60 60 59 59 58 59 59 59 59 60 60 60 60 60 60 60 60 60 60 60 60 60 60 59 60 60 60
20 21 24 18 14 11 14 12 22 20 20 22 23 26 30 53 55 57 58 60 60 60 60 59 59 58 58 58 58 59 59 59 59 60 60 60 60 60 60 60 60 60 60 60 60 59 60 59 59
Lifted_Index
6 7 8 7 6 4 3 2 2 1 1 1 1 1 1 1 1 2 3 3 2 1 -2 -3 -2 -2 -2 -1 -1 -1 -0 0 1 2 3 4 4 4 4 4 4 3 3 4 4 4 4 4 4
8 8 8 7 5 3 3 2 2 1 1 1 1 2 2 1 1 2 2 2 2 0 -1 -2 -2 -2 -2 -2 -1 -1 -0 0 1 1 2 3 3 3 3 3 3 3 3 3 3 3 3 3 3
9 9 8 6 4 3 3 2 1 1 1 1 2 2 2 2 1 2 1 1 1 0 -1 -2 -2 -2 -2 -2 -2 -1 -1 -0 0 1 2 2 2 2 2 2 2 2 3 2 2 1 1 1 1
9 9 8 5 3 3 3 2 1 1 1 1 2 2 2 2 2 1 1 1 1 0 -1 -2 -2 -3 -3 -3 -3 -2 -1 -1 -0 0 1 1 1 1 1 1 1 2 1 1 0 -1 -1 -1 -1
8 8 6 4 3 3 3 3 2 2 2 2 2 2 2 2 2 1 1 1 1 1 0 -1 -2 -3 -3 -3 -3 -3 -2 -2 -1 -1 -0 -0 -0 -1 -0 0 0 0 0 -0 -1 -2 -2 -3 -3
7 7 5 3 3 3 4 4 3 2 2 2 2 2 2 2 1 1 1 1 1 1 2 0 -2 -3 -3 -3 -3 -3 -3 -3 -2 -2 -1 -1 -2 -2 -1 -1 -1 -1 -1 -2 -2 -3 -3 -3 -3
7 6 4 3 3 3 4 4 4 2 2 2 2 2 2 2 1 1 1 1 1 2 2 1 -1 -2 -3 -3 -4 -4 -3 -3 -3 -3 -2 -2 -3 -2 -2 -2 -2 -2 -2 -3 -3 -3 -4 -4 -4
6 6 5 3 3 3 4 4 3 3 2 2 3 3 3 3 2 1 1 1 1 1 2 2 0 -1 -2 -3 -3 -4 -4 -4 -4 -3 -3 -3 -3 -3 -3 -3 -3 -3 -3 -3 -4 -4 -5 -5 -4
5 5 5 4 3 3 4 4 3 2 2 2 3 3 3 3 2 1 1 1 1 1 1 1 0 -1 -1 -2 -3 -4 -4 -4 -4 -4 -3 -3 -3 -3 -3 -3 -4 -3 -3 -4 -4 -5 -5 -5 -4
4 5 5 5 4 4 4 4 3 2 2 2 2 2 3 3 3 2 1 1 0 0 -0 -0 -0 -0 -1 -1 -2 -3 -4 -4 -4 -4 -3 -3 -3 -3 -3 -4 -4 -4 -4 -4 -5 -6 -6 -5 -4
4 4 5 5 5 4 3 3 3 2 2 2 2 2 2 3 2 2 2 1 0 -0 -1 -1 -1 -1 -1 -1 -2 -3 -4 -4 -4 -3 -3 -3 -3 -3 -3 -3 -3 -4 -4 -5 -5 -6 -6 -5 -4
3 4 4 4 3 2 2 2 2 2 2 2 2 2 2 2 2 2 2 2 1 0 0 -1 -2 -2 -2 -1 -2 -2 -3 -3 -3 -3 -3 -3 -3 -2 -3 -3 -3 -3 -4 -4 -5 -5 -5 -4 -4
3 3 3 2 1 1 1 2 2 2 2 2 2 2 2 2 2 2 2 2 2 1 1 1 -1 -2 -2 -2 -2 -2 -2 -3 -2 -2 -2 -3 -2 -2 -2 -2 -2 -2 -2 -3 -4 -4 -4 -4 -4
3 3 2 2 1 1 1 2 3 3 3 2 2 2 2 2 2 2 2 2 2 2 2 2 1 -0 -2 -2 -2 -2 -2 -2 -2 -2 -2 -3 -2 -2 -1 -1 -1 -1 -1 -2 -3 -4 -4 -4 -3
3 3 2 2 2 2 2 3 4 3 3 3 3 2 3 3 3 2 2 2 3 3 3 3 2 1 -1 -2 -2 -2 -2 -2 -2 -2 -2 -3 -2 -2 -1 -1 -1 -0 -1 -2 -3 -4 -3 -3 -3
4 3 2 2 3 2 3 4 4 4 3 3 3 3 3 4 3 2 2 3 4 4 4 3 3 2 0 -1 -2 -2 -2 -2 -3 -3 -3 -3 -3 -2 -2 -1 -1 -0 -1 -2 -3 -3 -3 -3 -2
4 3 3 3 3 3 3 4 4 4 3 3 3 3 3 4 3 3 3 4 4 4 4 4 4 3 1 -1 -2 -2 -3 -3 -3 -3 -3 -4 -4 -3 -3 -2 -2 -1 -2 -3 -3 -3 -3 -2 -2
4 4 4 4 4 3 3 4 4 4 4 3 3 4 4 4 4 4 4 4 4 4 4 4 4 3 2 -0 -1 -2 -3 -4 -4 -4 -4 -4 -4 -4 -4 -4 -3 -3 -3 -3 -3 -3 -2 -2 -2
5 5 4 5 4 4 4 4 5 5 5 5 5 5 5 5 5 5 5 5 5 5 4 4 4 3 2 1 -1 -2 -3 -4 -4 -4 -5 -5 -5 -5 -5 -4 -4 -4 -3 -3 -3 -2 -2 -2 -2
6 6 5 5 5 5 5 5 5 6 6 6 6 6 6 6 6 6 6 5 5 5 5 4 4 3 2 1 -1 -2 -3 -3 -4 -5 -5 -5 -5 -5 -5 -4 -4 -3 -3 -3 -2 -2 -2 -2 -2
7 6 6 6 5 5 5 5 5 6 7 7 7 7 7 7 7 7 6 5 5 5 5 4 4 2 1 -0 -1 -2 -3 -4 -4 -5 -5 -6 -5 -5 -4 -4 -3 -3 -2 -2 -2 -2 -2 -2 -1
7 7 7 6 6 5 5 4 4 6 6 7 7 7 7 7 7 7 6 6 5 5 5 3 2 1 -1 -1 -2 -3 -4 -4 -5 -5 -5 -5 -4 -4 -4 -3 -3 -2 -2 -1 -1 -1 -1 -1 -1
8 8 7 7 6 5 4 4 4 5 5 5 5 6 6 7 6 6 6 6 6 5 4 2 -0 -1 -2 -2 -3 -4 -4 -5 -5 -5 -4 -3 -3 -2 -3 -2 -2 -2 -1 -1 -1 -1 -1 -1 -1
8 8 7 6 5 4 4 4 3 4 4 4 5 6 6 6 6 6 6 6 6 4 2 0 -1 -2 -3 -3 -4 -4 -5 -5 -4 -4 -3 -2 -2 -2 -2 -2 -2 -1 -1 -0 -0 -0 -0 -0 -0
8 7 5 3 2 3 4 4 3 4 5 5 6 7 6 6 6 6 7 6 5 3 1 -1 -2 -3 -3 -4 -4 -5 -4 -4 -3 -2 -2 -1 -1 -1 -1 -1 -1 -1 -0 0 0 0 0 -0 -0
7 6 5 3 2 3 4 4 4 5 6 6 6 7 7 7 6 7 7 6 4 2 -0 -2 -2 -3 -4 -4 -4 -4 -4 -3 -2 -1 -1 -1 -1 -1 -1 -0 -0 0 0 0 0 0 0 0 -0
6 6 5 4 3 3 3 3 4 6 6 5 5 6 7 7 6 6 6 5 3 1 -1 -2 -2 -3 -3 -3 -3 -3 -2 -2 -1 -1 -1 -0 -0 0 0 1 1 1 1 1 0 0 0 0 0
4 5 5 5 4 2 1 2 4 6 6 5 5 6 6 6 6 5 5 3 2 0 -1 -2 -2 -3 -2 -2 -2 -2 -1 -1 -0 -0 -0 0 0 1 1 1 1 1 1 1 1 1 1 0 0
3 3 4 5 4 3 1 2 5 7 7 6 6 6 6 5 4 3 2 2 1 -1 -1 -2 -2 -2 -2 -1 -1 -1 -0 0 0 0 0 0 1 1 1 1 1 1 1 1 1 1 1 0 0
3 3 4 5 5 4 3 4 6 8 8 7 7 6 5 3 2 2 1 1 -0 -1 -2 -2 -2 -1 -1 -1 -1 -0 0 1 1 1 1 1 1 1 1 1 1 1 0 1 1 1 1 1 0